W0ANA Weather Reports


Display with metric or nautical units.
time (UTC)temp
F
wind
direction
speed
MPH
gust
MPH
rain 1hr
in
rain 24hr
in
rain mn
in
humidity
%
barometer
mb
20260502223016 65 203 2.0 5.0 0.00 0.00 0.00 33 1010.5
20260502221518 65 249 2.0 7.0 0.00 0.00 0.00 33 1010.5
20260502220015 65 231 6.0 12.0 0.00 0.00 0.00 32 1010.5
20260502214514 65 228 5.0 11.0 0.00 0.00 0.00 32 1010.7
20260502213013 65 232 5.0 10.0 0.00 0.00 0.00 32 1010.9
20260502211509 66 229 2.0 8.0 0.00 0.00 0.00 32 1011.2
20260502210007 66 208 5.0 14.0 0.00 0.00 0.00 32 1011.5
20260502204507 65 191 2.0 15.0 0.00 0.00 0.00 32 1011.9
20260502203002 65 233 4.0 16.0 0.00 0.00 0.00 31 1012.2
20260502201600 64 154 4.0 12.0 0.00 0.00 0.00 31 1012.6
20260502200058 65 224 3.0 12.0 0.00 0.00 0.00 31 1012.9
20260502194554 63 210 3.0 13.0 0.00 0.00 0.00 32 1013.2
20260502193049 63 79 3.0 10.0 0.00 0.00 0.00 33 1013.4
20260502191556 61 147 7.0 13.0 0.00 0.00 0.00 33 1013.7
20260502190042 61 259 5.0 9.0 0.00 0.00 0.00 33 1014.1
20260502184541 61 249 2.0 13.0 0.00 0.00 0.00 33 1014.4
20260502183039 61 257 6.0 14.0 0.00 0.00 0.00 32 1014.6
20260502181535 60 170 4.0 12.0 0.00 0.00 0.00 33 1014.8
20260502163023 57 198 2.0 13.0 0.00 0.00 0.00 35 1016.5
20260502161515 56 258 4.0 9.0 0.00 0.00 0.00 36 1016.7
20260502151506 54 235 1.0 7.0 0.00 0.00 0.00 43 1017.6
20260502150112 53 242 3.0 7.0 0.00 0.00 0.00 44 1017.9
20260502123041 37 214 0.0 2.0 0.00 0.00 0.00 80 1018.7
20260502121526 35 215 0.0 1.0 0.00 0.00 0.00 86 1018.1
20260502114525 31 221 0.0 1.0 0.00 0.00 0.00 89 1018.2
20260502113024 30 222 0.0 0.0 0.00 0.00 0.00 87 1018.1
20260502111526 30 222 0.0 0.0 0.00 0.00 0.00 86 1018.0
20260502110026 31 222 0.0 0.0 0.00 0.00 0.00 86 1018.2
20260502104522 31 222 0.0 0.0 0.00 0.00 0.00 86 1017.8
20260502103021 31 222 0.0 0.0 0.00 0.00 0.00 85 1017.9
20260502101520 31 222 0.0 0.0 0.00 0.00 0.00 84 1017.9
20260502091511 33 222 0.0 0.0 0.00 0.00 0.00 80 1017.8
20260502070059 35 222 0.0 0.0 0.00 0.00 0.00 75 1017.8
20260502064600 35 222 0.0 0.0 0.00 0.00 0.00 74 1018.2
20260502063117 36 222 0.0 0.0 0.00 0.00 0.00 75 1018.4
20260502061554 36 222 0.0 0.0 0.00 0.00 0.00 75 1018.0
20260502060057 36 222 0.0 0.0 0.00 0.00 0.00 73 1018.0
20260502054548 36 222 0.0 0.0 0.00 0.00 0.00 73 1018.0
20260502053055 36 222 0.0 0.0 0.00 0.00 0.00 70 1018.1
20260502051543 37 222 0.0 0.0 0.00 0.00 0.00 69 1018.1
20260502050040 37 222 0.0 0.0 0.00 0.00 0.00 68 1018.1
20260502044540 37 222 0.0 0.0 0.00 0.00 0.00 66 1018.2
20260502043041 38 222 0.0 0.0 0.00 0.00 0.00 65 1018.5
20260502041539 39 222 0.0 0.0 0.00 0.00 0.00 64 1018.5
20260502040039 39 222 0.0 0.0 0.00 0.00 0.00 62 1018.5
20260502034538 40 222 0.0 0.0 0.00 0.00 0.00 59 1018.5
20260502033041 41 222 0.0 0.0 0.00 0.00 0.00 61 1018.5
20260502031537 42 222 0.0 0.0 0.00 0.00 0.00 57 1018.5
20260502030040 42 222 0.0 0.0 0.00 0.00 0.00 54 1018.3
20260502024536 43 222 0.0 1.0 0.00 0.00 0.00 55 1018.1
20260502023037 44 220 0.0 0.0 0.00 0.00 0.00 52 1018.1
20260502021535 45 220 0.0 0.0 0.00 0.00 0.00 46 1017.9
20260502020039 47 219 0.0 0.0 0.00 0.00 0.00 43 1017.8
20260502014533 48 220 0.0 0.0 0.00 0.00 0.00 38 1017.6
20260502013035 50 220 0.0 0.0 0.00 0.00 0.00 36 1017.6
20260502011532 51 220 0.0 0.0 0.00 0.00 0.00 35 1017.9
20260502010032 52 229 0.0 1.0 0.00 0.00 0.00 33 1017.9
20260502004532 52 240 0.0 1.0 0.00 0.00 0.00 32 1017.4
20260502003031 53 132 0.0 1.0 0.00 0.00 0.00 31 1017.4
20260502001531 53 356 0.0 2.0 0.00 0.00 0.00 32 1017.4
20260502000030 54 288 0.0 3.0 0.00 0.00 0.00 31 1017.4
20260501234536 54 250 0.0 1.0 0.00 0.00 0.00 31 1017.8
20260501233030 53 56 0.0 2.0 0.00 0.00 0.00 32 1017.8
20260501231528 54 353 1.0 2.0 0.00 0.00 0.00 29 1017.9
20260501230034 56 205 0.0 1.0 0.00 0.00 0.00 28 1017.5
20260501224532 57 228 1.0 4.0 0.00 0.00 0.00 26 1017.5